Home   Weather   Jacksonville   Past weeks

Flag for USA Past Weather in Jacksonville, Florida, USA — Yesterday and Last 2 Weeks

Now
46 °F

Passing clouds.


Feels Like: 40 °F
Forecast: 42 / 61 °F
Wind: 15 mph from North

Location: Jacksonville Naval Air Station

Current Time: Dec 10, 2016 at 7:52:47 am

Latest Report: Dec 10, 2016 at 6:53 am


Visibility: 10 mi

Pressure: 30.42 "Hg

Humidity: 71%

Dew Point: 37 °F

Location of JacksonvilleLocation

Past Weather in Jacksonville — Graph

°F

Jacksonville Temperature Yesterday

Maximum temperature yesterday: 56 °F (at 3:53 pm)
Minimum temperature yesterday: 46 °F (at 7:53 am)
Average temperature yesterday: 51 °F

High & Low Weather Summary for the Past Weeks

 TemperatureHumidityPressure
High84 °F (Nov 30, 2:53 pm)96% (Dec 6, 3:53 am)30.42 "Hg (Dec 6, 3:53 am)
Low46 °F (Dec 9, 7:53 am)30% (Dec 2, 3:53 pm)29.75 "Hg (Dec 6, 1:53 pm)
Average66 °F68%30.08 "Hg
* Reported Nov 25 6:53 am — Dec 10 6:53 am, Jacksonville, Weather by CustomWeather, © 2016

Note: Actual official high and low records may vary slightly from our data, if they occured in-between our weather recording intervals... More about our weather records

Advertising

Jacksonville Weather History for the Previous 24 Hours

Scroll right to see more
 ConditionsComfort  
Time TempWeatherWind HumidityBarometerVisibility
6:53 am
Sat, Dec 10
46 °FPassing clouds.15 mph71%30.42 "Hg10 mi
5:53 am46 °FPassing clouds.17 mph66%30.41 "Hg10 mi
4:53 am46 °FClear.16 mph63%30.40 "Hg10 mi
3:53 am46 °FPassing clouds.15 mph61%30.39 "Hg10 mi
2:53 am47 °FPassing clouds.14 mph59%30.38 "Hg10 mi
1:53 am47 °FPassing clouds.16 mph56%30.38 "Hg10 mi
12:53 am48 °FPassing clouds.15 mph54%30.38 "Hg10 mi
11:53 pm
Fri, Dec 9
49 °FHigh level clouds.13 mph50%30.39 "Hg10 mi
10:53 pm49 °FHigh level clouds.13 mph46%30.40 "Hg10 mi
9:53 pm50 °FPassing clouds.14 mph50%30.40 "Hg10 mi
8:53 pm52 °FPassing clouds.10 mph50%30.40 "Hg10 mi
7:53 pm52 °FPassing clouds.10 mph50%30.40 "Hg10 mi
6:53 pm52 °FPassing clouds.9 mph50%30.38 "Hg10 mi
5:53 pm53 °FPassing clouds.8 mph43%30.37 "Hg10 mi
4:53 pm55 °FPassing clouds.8 mph40%30.34 "Hg10 mi
3:53 pm56 °FPassing clouds.8 mph33%30.33 "Hg10 mi
2:53 pm55 °FPassing clouds.9 mph35%30.32 "Hg10 mi
1:53 pm55 °FPassing clouds.9 mph34%30.32 "Hg10 mi
12:53 pm55 °FScattered clouds.12 mph34%30.34 "Hg10 mi
11:53 am52 °FScattered clouds.10 mph37%30.37 "Hg10 mi
10:53 am50 °FPartly sunny.12 mph41%30.40 "Hg10 mi
9:53 am49 °FPartly sunny.13 mph43%30.40 "Hg10 mi
8:53 am46 °FPartly sunny.17 mph48%30.37 "Hg10 mi
7:53 am46 °FPartly sunny.20 mph46%30.36 "Hg10 mi
Weather by CustomWeather, © 2016

See weather overviewHow to use our weather pages